EA1BIS-13 Weather Reports


Display with metric or nautical units.
time (UTC)temp
F
wind
direction
speed
MPH
gust
MPH
rain 1hr
in
rain 24hr
in
rain mn
in
humidity
%
barometer
mb
20260507055926 40 186 0.0 0.0 0.00 0.00 0.00 93 1012.0
20260507054418 40 186 0.0 1.0 0.00 0.00 0.00 93 1011.9
20260507052930 40 195 0.0 1.0 0.00 0.00 0.00 93 1011.9
20260507051422 39 195 0.0 0.0 0.00 0.00 0.00 93 1012.0
20260507045933 39 195 0.0 0.0 0.00 0.00 0.00 93 1012.0
20260507044424 38 195 0.0 0.0 0.00 0.00 0.00 92 1012.0
20260507042920 39 195 0.0 0.0 0.00 0.00 0.00 93 1011.9
20260507041432 39 195 0.0 0.0 0.00 0.00 0.00 92 1012.1
20260507035924 39 195 0.0 1.0 0.00 0.00 0.00 92 1012.2
20260507034435 39 257 0.0 1.0 0.00 0.00 0.00 92 1012.2
20260507032927 39 212 0.0 1.0 0.00 0.00 0.00 93 1012.2
20260507031418 39 212 0.0 0.0 0.00 0.00 0.00 92 1012.3
20260507025930 39 212 0.0 0.0 0.00 0.00 0.00 93 1012.2
20260507024420 38 214 0.0 2.0 0.00 0.00 0.00 92 1012.4
20260507022932 39 219 0.0 0.0 0.00 0.00 0.00 92 1012.3
20260507021424 39 219 0.0 0.0 0.00 0.00 0.00 92 1012.5
20260507015916 38 218 0.0 0.0 0.00 0.00 0.00 92 1012.4
20260507014428 38 218 0.0 1.0 0.00 0.00 0.00 92 1012.5
20260507012920 38 222 0.0 0.0 0.00 0.00 0.00 92 1012.5
20260507011430 37 222 0.0 0.0 0.00 0.00 0.00 91 1012.6
20260507005922 38 217 0.0 1.0 0.00 0.00 0.00 89 1012.6
20260507004434 41 217 0.0 1.0 0.00 0.00 0.00 85 1012.5
20260507002926 41 37 1.0 2.0 0.00 0.00 0.00 90 1012.3
20260507001418 41 212 0.0 0.0 0.00 0.00 0.00 88 1012.6
20260506235930 42 212 0.0 1.0 0.00 0.00 0.00 84 1012.6
20260506234417 44 41 0.0 1.0 0.00 0.00 0.00 85 1012.7
20260506232929 45 108 0.0 2.0 0.00 0.00 0.00 84 1012.8
20260506231421 45 99 0.0 2.0 0.00 0.00 0.00 84 1012.7
20260506225933 45 89 0.0 1.0 0.00 0.00 0.00 83 1012.8
20260506224425 46 90 0.0 0.0 0.00 0.00 0.00 82 1012.7
20260506222955 46 58 1.0 6.0 0.00 0.00 0.00 81 1012.7
20260506221425 47 43 1.0 6.0 0.00 0.00 0.00 81 1012.8
20260506215917 47 27 1.0 7.0 0.00 0.00 0.00 80 1012.8
20260506214429 48 41 1.0 9.0 0.00 0.00 0.00 79 1012.8
20260506212922 48 51 2.0 7.0 0.00 0.00 0.00 78 1012.8
20260506211434 49 86 1.0 6.0 0.00 0.00 0.00 77 1012.9
20260506205925 49 143 3.0 8.0 0.00 0.00 0.00 76 1012.8
20260506204438 50 57 2.0 8.0 0.00 0.00 0.00 75 1012.7
20260506202929 50 121 2.0 8.0 0.00 0.00 0.00 74 1012.6
20260506201425 50 68 2.0 6.0 0.00 0.00 0.00 73 1012.5
20260506195916 50 51 2.0 6.0 0.00 0.00 0.00 72 1012.4
20260506194435 51 91 1.0 6.0 0.00 0.00 0.00 72 1012.2
20260506192927 51 52 1.0 9.0 0.00 0.00 0.00 71 1012.1
20260506191419 52 52 0.0 6.0 0.00 0.00 0.00 70 1011.9
20260506185932 53 356 2.0 8.0 0.00 0.00 0.00 69 1011.7
20260506184423 53 58 1.0 7.0 0.00 0.00 0.00 68 1011.7
20260506182934 54 107 4.0 8.0 0.00 0.00 0.00 65 1011.7
20260506181426 55 60 3.0 7.0 0.00 0.00 0.00 62 1011.6
20260506175956 57 142 0.0 2.0 0.00 0.00 0.00 59 1011.6
20260506174427 57 143 0.0 1.0 0.00 0.00 0.00 60 1011.7
20260506172918 58 139 0.0 0.0 0.00 0.00 0.00 58 1011.7
20260506171447 58 138 0.0 1.0 0.00 0.00 0.00 55 1011.7
20260506165956 59 141 0.0 0.0 0.00 0.00 0.00 54 1011.7
20260506164426 59 122 0.0 0.0 0.00 0.00 0.00 53 1011.7
20260506162917 58 143 0.0 2.0 0.00 0.00 0.00 51 1011.7
20260506161428 59 199 0.0 1.0 0.00 0.00 0.00 51 1011.7
20260506155920 59 198 0.0 1.0 0.00 0.00 0.00 48 1011.8
20260506154431 59 211 2.0 7.0 0.00 0.00 0.00 47 1011.8
20260506152921 59 231 0.0 2.0 0.00 0.00 0.00 47 1011.9
20260506151432 60 222 1.0 6.0 0.00 0.00 0.00 45 1012.1
20260506145925 60 248 1.0 4.0 0.00 0.00 0.00 47 1012.2
20260506144416 58 240 0.0 3.0 0.00 0.00 0.00 48 1012.2
20260506142927 58 238 1.0 6.0 0.00 0.00 0.00 49 1012.4
20260506141417 61 211 2.0 4.0 0.00 0.00 0.00 45 1012.5
20260506135929 61 221 3.0 7.0 0.00 0.08 0.00 43 1012.5
20260506134421 62 208 1.0 5.0 0.00 0.08 0.00 46 1012.8
20260506132951 62 187 3.0 6.0 0.00 0.08 0.00 42 1012.8
20260506131420 62 134 0.0 5.0 0.00 0.08 0.00 48 1012.9
20260506125932 61 333 0.0 3.0 0.00 0.08 0.00 39 1012.9
20260506124422 61 110 0.0 2.0 0.00 0.08 0.00 45 1013.2
20260506122933 60 34 1.0 2.0 0.00 0.08 0.00 46 1013.3
20260506121425 59 229 1.0 6.0 0.00 0.08 0.00 52 1013.4
20260506115916 58 46 0.0 2.0 0.00 0.08 0.00 50 1013.6
20260506114429 56 276 0.0 2.0 0.00 0.08 0.00 53 1013.7
20260506112925 55 18 0.0 4.0 0.00 0.08 0.00 54 1013.8
20260506111417 55 122 1.0 3.0 0.00 0.08 0.00 54 1013.9
20260506105928 55 58 1.0 2.0 0.00 0.08 0.00 54 1014.0
20260506104421 54 135 1.0 5.0 0.00 0.08 0.00 57 1014.0
20260506102933 54 148 1.0 6.0 0.00 0.08 0.00 56 1014.1
20260506101425 53 163 1.0 4.0 0.00 0.08 0.00 59 1014.1
20260506095916 54 30 1.0 5.0 0.00 0.16 0.00 60 1014.2
20260506094429 53 56 1.0 6.0 0.00 0.16 0.00 60 1014.1
20260506092919 52 47 1.0 7.0 0.00 0.16 0.00 62 1014.2
20260506091451 52 56 1.0 6.0 0.00 0.16 0.00 64 1014.2
20260506085942 50 43 1.0 5.0 0.00 0.16 0.00 64 1014.1
20260506084433 49 84 0.0 6.0 0.00 0.16 0.00 67 1014.1
20260506082925 48 52 0.0 3.0 0.00 0.16 0.00 70 1014.1
20260506081417 47 339 0.0 1.0 0.00 0.16 0.00 76 1014.2
20260506072933 42 245 0.0 0.0 0.00 0.16 0.00 90 1014.3
20260506071422 40 245 0.0 1.0 0.00 0.16 0.00 90 1014.3
20260506061430 38 245 0.0 0.0 0.00 0.16 0.00 94 1014.1